Home   Weather   Brattleboro   Past weeks

Flag for USA Past Weather in Brattleboro, Vermont, USA — Yesterday and Last 2 Weeks

Now
32 °F

Overcast.


Feels Like: 26 °F
Forecast: 32 / 36 °F
Wind: 6 mph from North

Location: Keene / Dillant

Current Time: Jan 23, 2017 at 10:07:19 am

Latest Report: Jan 23, 2017 at 8:56 am


Visibility: 10 mi

Pressure: 30.11 "Hg

Humidity: 79%

Dew Point: 26 °F

Location of BrattleboroLocation

Past Weather in Brattleboro — Graph

°F

Brattleboro Temperature Yesterday

Maximum temperature yesterday: 38 °F (at 1:56 pm)
Minimum temperature yesterday: 28 °F (at 12:03 am)
Average temperature yesterday: 33 °F

High & Low Weather Summary for the Past Weeks

 TemperatureHumidityPressure
High53 °F (Jan 12, 11:56 am)100% (Jan 12, 2:40 am)30.75 "Hg (Jan 12, 2:40 am)
Low-7 °F (Jan 9, 5:56 am)24% (Jan 13, 3:56 pm)29.75 "Hg (Jan 22, 12:36 am)
Average29 °F82%30.19 "Hg
* Reported Jan 8 8:02 am — Jan 23 8:56 am, Brattleboro, Weather by CustomWeather, © 2017

Note: Actual official high and low records may vary slightly from our data, if they occured in-between our weather recording intervals... More about our weather records

Advertising

Brattleboro Weather History for the Previous 24 Hours

Scroll right to see more
 ConditionsComfort  
Time TempWeatherWind HumidityBarometerVisibility
8:56 am
Mon, Jan 23
32 °FOvercast.6 mph79%30.11 "Hg10 mi
7:56 am31 °FOvercast.3 mph82%30.11 "Hg10 mi
6:56 am31 °FOvercast.10 mph82%30.10 "Hg10 mi
5:56 am32 °FOvercast.5 mph82%30.08 "Hg10 mi
4:56 am32 °FOvercast.7 mph85%30.05 "Hg10 mi
3:56 am32 °FOvercast.5 mph85%30.07 "Hg10 mi
2:56 am33 °FOvercast.8 mph88%30.07 "Hg10 mi
1:56 am33 °FLight snow. Overcast.6 mph92%30.05 "Hg9 mi
12:56 am34 °FLight snow. Overcast.5 mph92%30.03 "Hg10 mi
11:56 pm
Sun, Jan 22
34 °FOvercast.7 mph97%30.03 "Hg10 mi
11:16 pm34 °FOvercast.8 mph100%29.97 "Hg10 mi
10:56 pm34 °FMostly cloudy.No wind97%30.03 "Hg10 mi
9:56 pm34 °FOvercast.3 mph97%30.03 "Hg10 mi
8:56 pm34 °FOvercast.No wind97%30.02 "Hg10 mi
7:56 pm34 °FLight rain. Fog.3 mph97%29.99 "Hg6 mi
6:56 pm35 °FLight rain. Overcast.No wind96%29.98 "Hg10 mi
5:56 pm35 °FMostly cloudy.6 mph100%29.96 "Hg10 mi
5:17 pm36 °FLight rain. Overcast.5 mph100%29.88 "Hg10 mi
4:56 pm36 °FLight rain. Mostly cloudy.5 mph100%29.93 "Hg7 mi
4:12 pm37 °FMore clouds than sun.5 mph93%29.85 "Hg9 mi
3:56 pm38 °FLight rain. Mostly cloudy.5 mph93%29.91 "Hg10 mi
3:17 pm37 °FLight rain. Mostly cloudy.6 mph100%29.82 "Hg10 mi
2:56 pm38 °FLight rain. Overcast.7 mph100%29.88 "Hg10 mi
1:56 pm38 °FLight rain. Fog.No wind97%29.87 "Hg3 mi
1:21 pm37 °FLight rain. Fog.No wind100%29.82 "Hg2 mi
12:56 pm37 °FLight rain. Fog.No wind96%29.87 "Hg2 mi
12:11 pm36 °FLight rain. Fog.No wind100%29.80 "Hg3 mi
11:56 am36 °FLight rain. Fog.5 mph100%29.86 "Hg2 mi
11:42 am36 °FLight rain. Fog.6 mph100%29.80 "Hg2 mi
10:56 am35 °FFog.No wind100%29.88 "Hg6 mi
10:30 am36 °FFog.No wind93%29.81 "Hg6 mi
Weather by CustomWeather, © 2017

See weather overviewHow to use our weather pages